Regional Weather Roundup
Issued by NWS

Home | Current Version | Previous Version | Text Only | Print | Product List | Glossary On
Versions: 1 2 3 4 5 6 7 8 9 10 11 12 13 14 15 16 17 18 19 20 21 22 23 24 25 26 27 28 29 30 31 32 33 34 35 36 37 38 39 40 41 42 43 44 45 46 47 48 49 50
425
ASHW40 PHFO 251943
RWRHI

WEATHER ROUNDUP FOR HAWAII
NATIONAL WEATHER SERVICE HONOLULU HI
900 AM HST SUN JUN 25 2017

THIS IS AN AUTOMATED REPORT THAT HAS NOT BEEN QUALITY CONTROLLED.

NOTE..."FAIR" INDICATES FEW OR NO CLOUDS BELOW 12,000 FEET WITH NO
SIGNIFICANT WEATHER AND/OR OBSTRUCTIONS TO VISIBILITY.

* - THESE SITES REPORT LIMITED FIELDS

HIZ001>004-252000-
KAUAI-NIIHAU-

CITY           SKY/WX    TMP DP  RH WIND       PRES   REMARKS
LIHUE APT      MOSUNNY   83  68  60 NE9       30.06S
PORT ALLEN*    NOT AVBL
POIPU*           N/A     82 N/A N/A NE7G15      N/A
PRINCEVILLE*     N/A     77 N/A N/A SE6G13      N/A
KOKOLE POINT*  NOT AVBL
MOLOAA DAIRY*    N/A     81  72  74 E3G10       N/A
WAIMEA HTS*      N/A     88  64  45 SW3G9       N/A
PUU OPAE*      NOT AVBL
PUU LUA*       NOT AVBL
MAKAHA RIDGE*    N/A     75  66  73 NW2         N/A
$$

HIZ005>011-252000-
OAHU-

CITY           SKY/WX    TMP DP  RH WIND       PRES   REMARKS
HONOLULU       MOSUNNY   81  67  62 NE5       30.04S
KALAELOA       SUNNY     82  67  60 SE8       30.06R
KANEOHE MCB    PTSUNNY   82  71  69 NE10      30.03
WHEELER FIELD  FAIR      78  69  73 CALM      30.05S
BELLOWS*         N/A    N/A N/A N/A NE13        N/A
KAHUKU*          N/A    N/A N/A N/A NE9G16      N/A
WHEELER*         N/A    N/A N/A N/A E5G10       N/A
WAIANAE HARBOR   N/A    N/A N/A N/A W7          N/A
DILLINGHAM*      N/A     84  68  58 S1G7        N/A
KAHUKU TRN*      N/A     72  59  64 W7G17       N/A
KAWAILOA*        N/A     77  66  69 E6G12       N/A
KII*             N/A     81  72  74 E12         N/A
MAKUA RANGE*     N/A     70  54  56 E3          N/A
OAHU FOREST NW   N/A     75  66  73 E14         N/A
SCHOFIELD BRK*   N/A     64  54  68 MISG        N/A
SCHOFIELD S*   NOT AVBL
WAIANAE VLY*     N/A     84  66  54 SW2         N/A
KUAOKALA*        N/A     79  66  65 NE5G12      N/A
HONOULIUULI*   NOT AVBL
MOKUOLOE IS*   NOT AVBL
PALEHUA*         N/A     73  64  73 NE3G12      N/A
WAIAWA PHB*    NOT AVBL
$$

HIZ012>013-252000-
MOLOKAI-

CITY           SKY/WX    TMP DP  RH WIND       PRES   REMARKS
MOLOKAI AIRPT  SUNNY     83  65  54 CALM      30.05S
KALAUPAPA      NOT AVBL
MAKAPULAPAI*     N/A     82  68  61 E16         N/A
MOLOKAI 1*       N/A     75  64  69 W3          N/A
PUU ALII*        N/A     66  60  81 NE1         N/A
$$

HIZ016-252000-
KAHOOLAWE-

CITY           SKY/WX    TMP DP  RH WIND       PRES   REMARKS
KAHOOLAWE*     NOT AVBL
HAKIOAWA*        N/A     80  67  63 MISG      30.47S
HONOKANAIA*      N/A     82  69  64 E12G20    29.98R
KANELOA*         N/A     79  70  73 E14G21      N/A
KEALIALALO*    NOT AVBL
LUA MAKIKA*    NOT AVBL
$$

HIZ014>015-252000-
LANAI-

CITY           SKY/WX    TMP DP  RH WIND       PRES   REMARKS
LANAI CITY     FAIR      77  66  69 S3        30.10S
LANAI 1*         N/A     81  70  69 S3G10       N/A
$$

HIZ017>028-252000-
MAUI-

CITY           SKY/WX    TMP DP  RH WIND       PRES   REMARKS
KAHULUI        MOSUNNY   82  68  62 MISG      30.03F
KAPALUA-W MAUI MOSUNNY   82  64  54 CALM      30.06
HANA AIRPORT   SUNNY     82  72  69 E5        30.08
HANA*            N/A     79 N/A N/A SE5         N/A
HALEAKALA SUMM NOT AVBL
MAALAEA BAY*     N/A     82 N/A N/A N13G20      N/A
HALEAKALA*     NOT AVBL
KAUPO GAP*     NOT AVBL
KULA 1*          N/A     60  54  81 NW3         N/A
$$

HIZ023>026-252000-
BIG ISLAND OF HAWAII COAST AND LOWER SLOPES-

CITY           SKY/WX    TMP DP  RH WIND       PRES   REMARKS
KAILUA KONA    SUNNY     82  66  58 W9        30.01S
HILO           MOSUNNY   80  67  64 VRB3      30.06R
HONOKAA*         N/A     79 N/A N/A VRB1        N/A
KAWAIHAE MWT*    N/A     81 N/A N/A W7          N/A
KAWAIHAE*      NOT AVBL
SOUTH POINT*     N/A     77 N/A N/A N15G21      N/A
UPOLU AIRPORT* NOT AVBL
KAMUELA*       CLEAR     77  57  50 NE9       30.14
HAKALAU*         N/A     65  47  53 NE3         N/A
KALOKO-HONOKO*   N/A     84  66  54 W8        30.02R
PALI 2*          N/A     72  63  73 VRB8        N/A
KEALAKOMO*       N/A     82  66  57 E14         N/A
KAUPULEHU*       N/A    N/A N/A N/A NW5         N/A
KAPAPALA*        N/A     77  65  66 SE5         N/A
LOWER KAHUKU*    N/A     68  59  73 E2G9        N/A
PUHE CS*         N/A     81  66  61 W5          N/A
PUHO CS*         N/A     85  65  51 W2          N/A
PTA KEAMUKU*   NOT AVBL
WAIKOLOA*        N/A     81  64  57 NW5G12      N/A
$$

HIZ027>028-252000-
BIG ISLAND OF HAWAII INTERIOR AND SUMMMITS-

CITY           SKY/WX    TMP DP  RH WIND       PRES   REMARKS
BRADSHAW FIELD SUNNY     68  47  46 W3        30.37R
MK VISITOR CEN   N/A     61  23  23 S3          N/A
MAUNA KEA*     NOT AVBL
MAUNA LOA*       N/A     57   1  10 MISG        N/A
MAUNA LOA 1*   NOT AVBL
PTA KIPUKA*      N/A     50  32  50 NW3G9       N/A
PTA RANGE 17*    N/A     66  50  55 W6G12       N/A
PTA WEST*        N/A     72  54  53 N7G13       N/A
NENE CABIN*      N/A     64  45  48 E3          N/A
AHUMOA*          N/A     63  55  76 NW7G13      N/A
PTA PORTABLE*  NOT AVBL
PUU MALI*        N/A     64  45  48 NE7         N/A
$$

HIC003-252000-
NORTHWEST ISLANDS-

CITY           SKY/WX    TMP DP  RH WIND       PRES   REMARKS
MIDWAY ISLAND  CLOUDY    79  70  73 E14       30.20R
MIDWAY NOS*    NOT AVBL
FRENCH FRIGATE NOT AVBL
$$

PHZ110>124-180-252000-
BUOY REPORTS

STATION/POSITION TIME  TEMP    WIND        PRES    WAVE   SWELL
                       AIR SEA DIR/SP/G            HT/PER HT/DIR
                 (UTC) (F)     (DEG/KT/KT) (MB)    (FT/S) (FT/D)
BUOY 51001       1920   79 81   70/ 12/ 14 1018.4
BUOY 51101       1850   78 80   80/ 12/ 14 1018.8R   6/11   5/ 10
BUOY 51100       NOT AVBL
BUOY 51002       1920   78 80   90/ 14/ 16 1016.3
BUOY 51003       1850   79 81   80/  6/  8 1016.3R   5/13   5/150
BUOY 51004       1850      79   90/ 14/ 16 1017.0R   6/13   5/100
BARBERS PT BUOY  NOT AVBL
WAIMEA BAY BUOY  1902      79                N/A     3/11   2/350
KAILUA BAY BUOY  1904      80                N/A     4/ 8   2/ 30
LANAI BUOY       NOT AVBL
BARBERS PT 2     NOT AVBL
PAUWELA MAUI     1909      79                N/A     4/13   2/ 30
HILO             1927      80                N/A     4/13   2/100
KANEOHE BAY BUOY 1925      80                N/A     4/ 7   2/ 40
HANALEI KAUAI    1922      80                N/A     4/ 8   2/ 20
KAHULUI HARBOR   1918           20/  9/ 14   N/A
HONOLULU HARBOR  1918   80 80  230/  5/  5 1018.1
KILO NALU        NOT AVBL
HILO HARBOR      1918           30/  7/  8   N/A
MOKUOLOE         1836   83 82  100/  6/  9 1017.6R
NAWILIWILI       1918   79      40/  9/ 12 1017.5
WHOTS BUOY       NOT AVBL
BUOY 51028       NOT AVBL
$$

......................KEY........................................
  SKY/WX - SKY CONDITIONS/PRESENT WEATHER
  TMP    - TEMPERATURE IN FAHRENHEIT
  DWPT   - DEWPOINT IN FAHRENHEIT
  RH     - RELATIVE HUMIDITY IN PERCENT
  WIND   - DIRECTION AND SPEED /MPH FOR ISLANDS...KTS FOR BUOYS/
  PRES   - MEAN SEA LEVEL PRESSURE IN INCHES OF HG
  VSB    - VISIBILITY IN MILES
  HX     - HEAT INDEX
  WCI    - WIND CHILL INDEX
  VRB    - VARIABLE WIND DIRECTION
  N/A    - NOT AVAILABLE




USA.gov is the U.S. government's official web portal to all federal, state and local government web resources and services.